Home > Weather > Lautoka > Past weeks

Flag for Fiji Past Weather in Lautoka, Fiji — Yesterday and Last 2 Weeks

Now
79 °F

Broken clouds.


Feels Like: 81 °F
Forecast: 74 / 84 °F
Wind: 9 mph from West

Location: Nandi

Current Time: Aug 29, 2016 at 12:28:29 PM

Latest Report: Aug 29, 2016 at 12:00 PM


Visibility: N/A

Pressure: 29.98 "Hg

Humidity: 61%

Dew Point: 64 °F

Location of LautokaLocation

Past Weather in Lautoka — Graph

°F

Lautoka Temperature Yesterday

Maximum temperature yesterday: 84 °F (at 11:00 AM)
Minimum temperature yesterday: 68 °F (at 12:00 AM)
Average temperature yesterday: 75 °F

High & Low Weather Summary for the Past Weeks

 TemperatureHumidityPressure
High84 °F (Aug 14, 11:00 AM)100% (Aug 17, 4:00 AM)30.09 "Hg (Aug 17, 4:00 AM)
Low61 °F (Aug 21, 5:00 AM)35% (Aug 21, 1:00 PM)29.80 "Hg (Aug 16, 4:00 PM)
Average73 °F79%29.93 "Hg
* Reported Aug 14 11:00 AM — Aug 29 11:00 AM, Lautoka, Weather by CustomWeather, © 2016

Note: Actual official high and low records may vary slightly from our data, if they occured in-between our weather recording intervals... More about our weather records

Advertising

Lautoka Weather History for the Previous 24 Hours

Scroll right to see more
 ConditionsComfort  
Time TempWeatherWind HumidityBarometerVisibility
11:00 AM
Mon, Aug 29
81 °FScattered clouds.6 mph58%30.01 "HgN/A
10:00 AM79 °FScattered clouds.5 mph61%30.04 "HgN/A
9:00 AM79 °FScattered clouds.No wind61%30.04 "HgN/A
8:00 AM75 °FPassing clouds.7 mph65%30.04 "HgN/A
7:00 AM70 °FScattered clouds.7 mph83%30.01 "HgN/A
6:00 AM70 °FPassing clouds.6 mph78%30.01 "HgN/A
5:00 AM68 °FPassing clouds.7 mph83%30.01 "HgN/A
4:00 AM68 °FPassing clouds.5 mph83%29.98 "HgN/A
3:00 AM66 °FPassing clouds.3 mph88%30.01 "HgN/A
2:00 AM66 °FPassing clouds.3 mph88%30.01 "HgN/A
1:00 AM68 °FPassing clouds.5 mph83%30.01 "HgN/A
12:00 AM70 °FPassing clouds.7 mph83%30.04 "HgN/A
11:00 PM
Sun, Aug 28
68 °FPassing clouds.5 mph88%30.04 "HgN/A
10:00 PM70 °FPassing clouds.6 mph88%30.04 "HgN/A
9:00 PM72 °FPassing clouds.7 mph78%30.01 "HgN/A
8:00 PM73 °FPassing clouds.5 mph74%29.98 "HgN/A
7:00 PM77 °FPassing clouds.No wind65%29.98 "HgN/A
6:00 PM79 °FPassing clouds.7 mph61%29.95 "HgN/A
5:00 PM81 °FPassing clouds.13 mph58%29.95 "HgN/A
4:00 PM82 °FPassing clouds.12 mph55%29.95 "HgN/A
3:00 PM81 °FPassing clouds.12 mph54%29.95 "HgN/A
2:00 PM82 °FPassing clouds.13 mph51%29.98 "HgN/A
1:00 PM82 °FPassing clouds.13 mph51%30.01 "HgN/A
12:00 PM82 °FPassing clouds.10 mph48%30.04 "HgN/A
Weather by CustomWeather, © 2016

See weather overviewHow to use our weather pages